Regional Weather Roundup
Issued by NWS Goodland, KS

Home | Current Version | Previous Version | Graphics & Text | Print | Product List | Glossary On
Versions: 1 2 3 4 5 6 7 8 9 10 11 12 13 14 15 16 17 18 19 20 21 22 23 24 25 26 27 28 29 30 31 32 33 34 35 36 37 38 39 40 41 42 43 44 45 46 47 48 49 50
232
ASUS43 KGLD 261259
RWRGLD

GOODLAND FORECAST AREA HOURLY WEATHER ROUNDUP
NATIONAL WEATHER SERVICE GOODLAND KS
700 AM MDT THU MAY 26 2016

...OFFICIAL OBSERVATIONS...

CITY           SKY/WX    TMP DP  RH WIND       PRES   REMARKS
GOODLAND KS    SUNNY     56  48  74 N5        29.89S
HILL CITY KS   MOSUNNY   56  52  86 N6        29.88R
IMPERIAL NEB   MOSUNNY   55  51  86 N5        29.91S
MCCOOK NEB     SUNNY     55  51  86 NE6       29.89F
AKRON CO       CLOUDY    51  44  77 NW7       29.97R
BURLINGTON CO  SUNNY     55  45  68 N10       29.92F
LIMON CO       CLOUDY    53  48  83 N5        29.98F
$$

...UNOFFICIAL OBSERVATIONS...

CITY           SKY/WX    TMP DP  RH WIND       PRES   REMARKS
GOVE KS          N/A     59  32  36 MISG        N/A
LENORA KS        N/A     55  32  41 MISG        N/A
SHARON SPRINGS   N/A     59  54  83 NE12        N/A
KIT CARSON CO    N/A     54  44  70 MISG        N/A
YUMA CO          N/A     52  47  82 N6          N/A
$$




USA.gov is the U.S. government's official web portal to all federal, state and local government web resources and services.